Regional Weather Roundup
Issued by NWS Upton, NY

Current Version | Previous Version | Graphics & Text | Print | Product List | Glossary Off
Versions: 1 2 3 4 5 6 7 8 9 10 11 12 13 14 15 16 17 18 19 20 21 22 23 24 25 26 27 28 29 30 31 32 33 34 35 36 37 38 39 40 41 42 43 44 45 46 47 48 49 50

480
ASUS41 KOKX 160208
RWROKX

REGIONAL WEATHER ROUNDUP
NATIONAL WEATHER SERVICE NEW YORK NY
900 PM EST SUN JAN 15 2017

NOTE: "FAIR" INDICATES FEW OR NO CLOUDS BELOW 12,000 FEET WITH NO
SIGNIFICANT WEATHER AND/OR OBSTRUCTIONS TO VISIBILITY.

NYZ071-072-176-178-NJZ106-104-160300-
NEW YORK CITY METRO AREA

CITY           SKY/WX    TMP DP  RH WIND       PRES   REMARKS
Central Park   PTCLDY    34  19  54 VRB3      30.42R
Wall St Helipt CLEAR     35  21  56 VRB5      30.42R WCI  31
Bronx Bot Gard NOT AVBL
LaGuardia APRT PTCLDY    36  21  54 NW8       30.41R WCI  30
Kennedy INTL   PTCLDY    36  18  48 NW8       30.42R WCI  30
Breezy Point     N/A     34 N/A N/A NW8         N/A  WCI  27
Newark/Liberty PTCLDY    34  20  56 NW5       30.42R WCI  30
Teterboro      CLEAR     33  20  58 N3        30.41R
$$

NYZ177-179-078>081-160300-
LONG ISLAND NEW YORK

CITY           SKY/WX    TMP DP  RH WIND       PRES   REMARKS
Jones Beach      N/A     34 N/A N/A NW6         N/A  WCI  29
Matinecock PT  NOT AVBL
Farmingdale    CLEAR     30  22  72 NW3       30.40R
MacArthur/ISP  CLEAR     27  22  81 CALM      30.40R
Shirley        CLEAR     25  21  85 CALM      30.41R
Westhampton    CLEAR     19  15  84 CALM      30.41R
Southampton    NOT AVBL
Bridgehampton  NOT AVBL
East Hampton     N/A     20  17  88 CALM      30.39R
Montauk          N/A     33  23  66 N5        30.41R WCI  29
$$

NYZ052-065-067-160300-
HUDSON VALLEY

CITY           SKY/WX    TMP DP  RH WIND       PRES   REMARKS
White Plains   CLEAR     27  18  69 NW7       30.37R WCI  19
Newburgh       CLEAR     27  21  80 CALM      30.39S
Montgomery     CLEAR     29  18  63 NW5       30.37S WCI  24
Poughkeepsie   CLEAR     23  18  81 CALM      30.38F
Albany         CLEAR     27  14  58 W7        30.41R WCI  19
$$

NJZ001-105-106-008-010-013-015-019>022-104-160300-
NEW JERSEY

CITY           SKY/WX    TMP DP  RH WIND       PRES   REMARKS
Newark/Liberty PTCLDY    34  20  56 NW5       30.42R WCI  30
Teterboro      CLEAR     33  20  58 N3        30.41R
Caldwell       CLEAR     26  20  77 CALM      30.42R
Somerville     PTCLDY    24  19  81 CALM      30.40R
Linden           N/A     31  21  67 CALM      30.42R
Sussex         CLEAR     24  17  74 CALM      30.38S
Andover          N/A     22  18  85 CALM      30.39R
Trenton        CLOUDY    29  20  69 NW5       30.41R WCI  24
Millville      MOCLDY    29  27  92 CALM      30.42R
Atlantic City  PTCLDY    30  21  69 N3        30.41R
Wrightstown    PTCLDY    29  21  71 W6        30.39R WCI  23
Toms River     PTCLDY    24  21  88 CALM      30.42R
Belmar         PTCLDY    28  22  78 W5        30.42R WCI  23
$$

PAZ047>061-062-071-160300-
EASTERN PENNSYLVANIA

CITY           SKY/WX    TMP DP  RH WIND       PRES   REMARKS
Philadelphia   CLOUDY    34  20  56 N7        30.43R WCI  28
Allentown      PTCLDY    25  16  68 CALM      30.41S
Scranton       CLEAR     22  17  81 E6        30.37F WCI  14
$$

CTZ002-004>006-009-010-012-RIZ004-006-007-MAZ004-011-015-160300-
SOUTHERN NEW ENGLAND
 IN CT

CITY           SKY/WX    TMP DP  RH WIND       PRES   REMARKS
Bradley INTL   CLEAR     27  15  61 NW3       30.40R
Hartford       CLEAR     25  18  74 CALM      30.41R
Danbury        CLEAR     21  16  81 CALM      30.39R
Wtrbury/Oxford CLEAR     27  12  54 NE6       30.37R WCI  20
Bridgeport     CLEAR     31  20  63 CALM      30.40R
Meriden        CLEAR     24  16  71 CALM      30.40R
New Haven      CLEAR     26  19  74 CALM      30.40R
Chester          N/A     30  14  51 NW3       30.38R
Groton         CLEAR     25  18  74 NE3       30.40R
Wilimantic     CLEAR     25  18  74 CALM      30.40R

 IN RI

CITY           SKY/WX    TMP DP  RH WIND       PRES   REMARKS
Providence     CLEAR     28  16  60 CALM      30.39R
Block Island   NOT AVBL
Westerly       CLEAR     25  16  68 CALM      30.40R
 IN MA

CITY           SKY/WX    TMP DP  RH WIND       PRES   REMARKS
Boston         CLEAR     28  14  55 N6        30.39R WCI  22
Worcester      CLEAR     24  10  55 NW6       30.34R WCI  17
Westfield      CLEAR     20  16  84 CALM      30.39R
Provincetown   CLEAR     34  15  46 N12       30.39R WCI  25
Nantucket      CLEAR     28  18  66 N6        30.37R WCI  22
$$

ANZ330-335-338-340-345-350-353-355-160300-
COASTAL MARINE OBSERVATIONS


STATION/POSITION TIME  SKY/WX   TEMP    WIND        PRES    VSBY  WAVE
                                AIR SEA DIR/SP/G                  HT/PER
                 (UTC)          (F)     (DEG/KT/KT) (MB)    (MI)  (FT/S)
NY HARB ENTRANCE 0050            39 44  310/  4/  6 1028.8          1/11
20 S FIRE ISLAND 0050            38 45  340/  6/ 10 1028.5          2/10
GREAT SOUTH BAY  NOT AVBL
23 SSW MONTAUK P 0050            38 47  280/  6/ 10 1029.2          2/10
15 E BARNEGAT LI 0100               45                N/A           2/11
HUDSON CANYON    0050            41 53              1029.0          3/ 5
KINGS POINT      0130            35 38              1029.3
EXECUTION ROCKS  0145            35     300/  8/ 10   N/A
CENTRAL LI SOUND 0115            38     360/  6/  8   N/A           1
EASTERN LI SOUND NOT AVBL
ROBBINS REEF     0130            35     320/  8/ 10 1029.9
$$


>>>>>>>>>>>>>>>>>>>>>>>>>>>> KEY <<<<<<<<<<<<<<<<<<<<<<<<<<<
>                                                          <
>     SKY/WX - Sky Condition/Present Weather               <
>     TMP    - Temperature in Fahrenheit                   <
>     DP     - Dew Point in Fahrenheit                     <
>     RH     - Relative Humidity in Percent                <
>     WIND   - Direction (from) and Speed in MPH           <
>     PRES   - Mean Sea Level Pressure (inches of Hg)      <
>     WCI    - Wind Chill Index                            <
>     VSB    - VISIBILITY IN MILES                         <
>     HX     - HEAT INDEX                                  <
>     TC     - TEMPERATURE IN CELSIUS                      <
>     VRB    - VARIABLE WIND DIRECTION                     <
>                                                          <
>>>>>>>>>>>>>>>>>>>>>>>>>>>> KEY <<<<<<<<<<<<<<<<<<<<<<<<<<<




USA.gov is the U.S. government's official web portal to all federal, state and local government web resources and services.